Stations météo

réclame
Mon MeteoGroup
Vitoria, Espagne (8080): Température de l'air & dewpoint: 16.10.2017 12:00:00 - 22.10.2017 12:00:00 (CEST)Vitoria, Espagne (8080): Vitesse du vent: 16.10.2017 12:00:00 - 22.10.2017 12:00:00 (CEST)Vitoria, Espagne (8080): Direction du vent: 16.10.2017 12:00:00 - 22.10.2017 12:00:00 (CEST)Vitoria, Espagne (8080): reduced air pressure: 16.10.2017 12:00:00 - 22.10.2017 12:00:00 (CEST)Vitoria, Espagne (8080): visibility: 16.10.2017 12:00:00 - 22.10.2017 12:00:00 (CEST)
Date & Time tt [°C] td [°C] ff [km/h] ff [knt] dd ppp [hPa] vv [km]
22.10.2017 12:00:00 - - - - - - -
22.10.2017 11:00:00 10,3 7,7 5 3 SSW 1030,6 14
22.10.2017 10:00:00 8,6 7,5 2 1 W 1030,8 -
22.10.2017 09:00:00 7,0 6,6 4 2 WSW 1031,0 12
22.10.2017 08:00:00 6,2 6,1 8 4 WSW 1030,6 15
22.10.2017 07:00:00 5,2 4,9 0 0 N 1030,2 -
22.10.2017 06:00:00 5,5 5,1 0 0 N 1030,1 -
22.10.2017 05:00:00 - - - - - - -
22.10.2017 04:00:00 7,0 5,8 4 2 WSW 1029,6 -
22.10.2017 03:00:00 9,3 6,9 4 2 W 1029,2 -
22.10.2017 02:00:00 10,5 7,2 4 2 SSW 1029,2 15
22.10.2017 01:00:00 11,3 7,5 2 1 SSW 1028,7 -
22.10.2017 00:00:00 12,0 7,7 5 3 N 1028,7 -
21.10.2017 23:00:00 12,3 7,6 0 0 N 1028,2 15
21.10.2017 22:00:00 12,4 7,3 4 2 N 1028,1 -
21.10.2017 21:00:00 12,5 7,2 8 4 N 1027,8 -
21.10.2017 20:00:00 12,2 9,2 5 3 ENE 1027,4 15
21.10.2017 19:00:00 12,7 9,4 8 4 NNE 1026,7 -
21.10.2017 18:00:00 12,9 9,5 11 6 NNE 1026,1 -
21.10.2017 17:00:00 13,3 9,4 22 12 NNE 1025,4 20
21.10.2017 16:00:00 15,0 10,2 15 8 NNE 1024,5 -
21.10.2017 15:00:00 15,0 10,0 9 5 NNW 1024,4 20
21.10.2017 14:00:00 14,4 10,2 4 2 ENE 1024,5 20
21.10.2017 13:00:00 13,2 10,6 8 4 E 1025,1 -
21.10.2017 12:00:00 12,6 11,3 8 4 E 1025,4 -
21.10.2017 11:00:00 12,0 10,1 13 7 NNW 1025,2 9
21.10.2017 10:00:00 12,4 11,6 13 7 NE 1023,8 -
21.10.2017 09:00:00 13,5 12,6 8 4 N 1022,6 5
21.10.2017 08:00:00 14,3 13,8 13 7 NNE 1021,5 8
21.10.2017 07:00:00 15,4 14,2 13 7 NNE 1020,6 -
21.10.2017 06:00:00 15,4 13,3 9 5 SSW 1019,7 -
21.10.2017 05:00:00 14,9 12,0 0 0 N 1019,6 20
21.10.2017 04:00:00 17,0 13,5 9 5 SW 1019,1 -
21.10.2017 03:00:00 18,1 13,9 15 8 SSW 1018,4 -
21.10.2017 02:00:00 18,2 13,9 26 14 SW 1017,9 20
21.10.2017 01:00:00 17,3 12,6 16 9 SW 1018,0 -
21.10.2017 00:00:00 13,7 10,6 2 1 S 1018,8 -
20.10.2017 23:00:00 15,2 10,4 5 3 WSW 1018,6 25
20.10.2017 22:00:00 15,9 10,2 11 6 WSW 1018,3 -
20.10.2017 21:00:00 16,9 9,5 8 4 SSW 1017,8 -
20.10.2017 20:00:00 18,8 9,6 8 4 WSW 1017,1 25
20.10.2017 19:00:00 20,5 9,7 18 10 SW 1016,2 -
20.10.2017 18:00:00 22,1 9,4 21 11 SSW 1016,1 -
20.10.2017 17:00:00 22,7 10,0 18 10 SSW 1016,1 30
20.10.2017 16:00:00 22,6 10,0 22 12 SW 1015,8 -
20.10.2017 15:00:00 22,8 10,2 24 13 SW 1015,9 30
20.10.2017 14:00:00 21,8 10,5 28 15 SW 1016,3 30
20.10.2017 13:00:00 20,6 11,0 29 16 SW 1016,8 -
20.10.2017 12:00:00 18,4 11,8 21 11 WSW 1017,5 -
20.10.2017 11:00:00 15,7 11,9 5 3 SW 1018,2 20
20.10.2017 10:00:00 12,4 11,0 8 4 ENE 1018,5 -
20.10.2017 09:00:00 11,0 9,6 5 3 NNE 1018,4 17
20.10.2017 08:00:00 10,5 9,3 4 2 NE 1018,0 10
20.10.2017 07:00:00 10,7 9,5 4 2 NNE 1017,5 -
20.10.2017 06:00:00 10,3 8,5 0 0 N 1017,1 -
20.10.2017 05:00:00 11,3 9,0 9 5 WSW 1016,7 10
20.10.2017 04:00:00 11,3 9,0 2 1 ENE 1016,3 -
20.10.2017 03:00:00 11,1 9,5 0 0 N 1016,5 -
20.10.2017 02:00:00 11,1 9,0 0 0 N 1016,4 10
20.10.2017 01:00:00 11,3 9,0 5 3 E 1015,8 -
20.10.2017 00:00:00 10,4 9,0 2 1 ENE 1016,0 -
19.10.2017 23:00:00 9,8 8,7 2 1 ENE 1015,4 10
19.10.2017 22:00:00 9,3 7,8 4 2 NE 1014,8 -
19.10.2017 21:00:00 10,5 8,2 0 0 N 1014,1 -
19.10.2017 20:00:00 12,0 8,5 2 1 W 1013,1 15
19.10.2017 19:00:00 14,4 7,9 11 6 SSW 1011,9 -
19.10.2017 18:00:00 16,4 7,2 21 11 SSW 1011,2 -
19.10.2017 17:00:00 17,8 7,7 21 11 SSW 1010,4 30
19.10.2017 16:00:00 18,3 8,4 21 11 SSW 1010,1 -
19.10.2017 15:00:00 17,6 9,3 21 11 SSW 1010,7 20
19.10.2017 14:00:00 17,2 9,7 11 6 SSW 1011,3 20
19.10.2017 13:00:00 15,7 10,0 16 9 SSW 1012,3 -
19.10.2017 12:00:00 13,8 10,3 16 9 SSW 1012,7 -
19.10.2017 11:00:00 12,9 10,6 15 8 SSW 1012,6 15
19.10.2017 10:00:00 11,8 10,4 8 4 SW 1012,2 -
19.10.2017 09:00:00 10,3 9,7 5 3 SSW 1012,6 11
19.10.2017 08:00:00 10,4 9,6 4 2 SSW 1012,3 12
19.10.2017 07:00:00 10,4 9,6 0 0 N 1012,2 -
19.10.2017 06:00:00 10,4 9,8 4 2 SSW 1012,0 -
19.10.2017 05:00:00 10,6 9,5 2 1 W 1011,8 12
19.10.2017 04:00:00 10,6 9,3 0 0 N 1011,9 -
19.10.2017 03:00:00 10,7 10,1 0 0 N 1011,8 -
19.10.2017 02:00:00 10,4 9,9 11 6 SW 1012,0 12
19.10.2017 01:00:00 11,0 10,4 5 3 SW 1011,9 -
19.10.2017 00:00:00 11,4 10,3 5 3 W 1011,7 -
18.10.2017 23:00:00 11,6 10,7 4 2 NW 1011,6 7
18.10.2017 22:00:00 12,1 11,2 4 2 E 1010,9 -
18.10.2017 21:00:00 12,5 10,7 0 0 N 1010,5 -
18.10.2017 20:00:00 12,8 11,0 8 4 N 1010,2 12
18.10.2017 19:00:00 13,6 11,8 5 3 ENE 1009,2 -
18.10.2017 18:00:00 14,4 10,8 0 0 N 1009,4 -
18.10.2017 17:00:00 14,6 11,2 0 0 N 1009,3 15
18.10.2017 16:00:00 14,3 11,0 2 1 SSW 1009,5 -
18.10.2017 15:00:00 14,4 11,4 9 5 SSW 1009,6 15
18.10.2017 14:00:00 12,6 11,0 4 2 S 1010,5 12
18.10.2017 13:00:00 12,5 11,6 13 7 SW 1010,6 -
18.10.2017 12:00:00 - - - - - - -
18.10.2017 11:00:00 13,7 12,2 4 2 WNW 1011,0 8
18.10.2017 10:00:00 13,3 11,0 4 2 W 1011,9 -
18.10.2017 09:00:00 11,6 10,0 4 2 W 1012,2 15
18.10.2017 08:00:00 12,5 10,0 0 0 N 1012,0 20
18.10.2017 07:00:00 13,2 9,9 4 2 WSW 1012,5 -
18.10.2017 06:00:00 13,1 10,8 0 0 N 1013,0 -
18.10.2017 05:00:00 14,3 11,1 4 2 SSW 1013,2 20
18.10.2017 04:00:00 15,1 12,2 8 4 SW 1013,7 -
18.10.2017 03:00:00 16,1 11,9 4 2 WSW 1013,7 -
18.10.2017 02:00:00 16,2 11,9 16 9 WSW 1014,1 20
18.10.2017 01:00:00 16,0 12,5 8 4 SW 1014,6 -
18.10.2017 00:00:00 16,5 12,6 4 2 W 1015,1 -
17.10.2017 23:00:00 17,8 11,9 4 2 S 1014,9 20
17.10.2017 22:00:00 18,9 10,7 9 5 S 1014,7 -
17.10.2017 21:00:00 18,8 10,4 9 5 ESE 1014,5 -
17.10.2017 20:00:00 20,0 10,4 4 2 SW 1014,4 20
17.10.2017 19:00:00 20,9 10,4 15 8 SSW 1014,2 -
17.10.2017 18:00:00 21,9 10,4 16 9 S 1013,9 -
17.10.2017 17:00:00 23,0 10,4 22 12 SSE 1013,6 15
17.10.2017 16:00:00 23,4 10,4 22 12 S 1013,7 -
17.10.2017 15:00:00 25,2 11,0 13 7 SE 1014,2 25
17.10.2017 14:00:00 22,2 11,0 11 6 E 1016,2 25
17.10.2017 13:00:00 21,4 10,9 8 4 ENE 1017,2 -
17.10.2017 12:00:00 19,9 11,4 9 5 E 1018,1 -
17.10.2017 11:00:00 18,6 12,0 9 5 E 1019,2 15
17.10.2017 10:00:00 16,2 12,0 8 4 E 1019,8 -
17.10.2017 09:00:00 13,8 11,3 2 1 E 1020,2 20
17.10.2017 08:00:00 13,4 10,6 2 1 NNW 1020,3 20
17.10.2017 07:00:00 11,7 10,1 4 2 NNW 1020,7 -
17.10.2017 06:00:00 10,1 8,5 2 1 ENE 1021,3 -
17.10.2017 05:00:00 10,9 9,0 0 0 N 1021,3 15
17.10.2017 04:00:00 10,2 8,9 2 1 NNW 1022,0 -
17.10.2017 03:00:00 10,5 10,0 4 2 NW 1022,4 -
17.10.2017 02:00:00 10,3 9,1 0 0 N 1023,1 15
17.10.2017 01:00:00 11,0 9,1 0 0 N 1023,4 -
17.10.2017 00:00:00 12,2 10,6 0 0 N 1023,5 -
16.10.2017 23:00:00 14,4 12,5 0 0 N 1023,1 20
16.10.2017 22:00:00 16,9 14,4 8 4 N 1022,5 -
16.10.2017 21:00:00 17,6 14,7 15 8 NNE 1022,4 -
16.10.2017 20:00:00 19,6 14,8 16 9 NNE 1022,0 25
16.10.2017 19:00:00 23,8 11,8 8 4 SE 1020,6 -
16.10.2017 18:00:00 25,8 10,0 11 6 ESE 1020,0 -
16.10.2017 17:00:00 26,9 11,7 4 2 E 1020,1 30
16.10.2017 16:00:00 26,8 12,0 5 3 S 1020,7 -
16.10.2017 15:00:00 25,1 12,9 4 2 ESE 1021,5 25
16.10.2017 14:00:00 24,7 12,9 13 7 SSW 1022,4 25
16.10.2017 13:00:00 22,8 13,5 4 2 ESE 1023,3 -
16.10.2017 12:00:00 21,4 13,4 4 2 E 1024,0 -

tt = Température de l'air
td = dewpoint
ff = Vitesse du vent
dd = Direction du vent
ppp = reduced air pressure
vv = visibility

stations d'obs. à proximité